Regional Weather Roundup
Issued by NWS

Home | Current Version | Previous Version | Text Only | Print | Product List | Glossary Off
Versions: 1 2 3 4 5 6 7 8 9 10 11 12 13 14 15 16 17 18 19 20 21 22 23 24 25 26 27 28 29 30 31 32 33 34 35 36 37 38 39 40 41 42 43 44 45 46 47 48 49 50

000
ASUS45 KBOI 231810
RWRID

IDAHO REGIONAL WEATHER ROUNDUP
NATIONAL WEATHER SERVICE BOISE ID
1100 AM MST THU FEB 23 2017

NOTE: "FAIR" INDICATES FEW OR NO CLOUDS BELOW 12000 FEET
WITH NO SIGNIFICANT WEATHER AND/OR OBSTRUCTIONS TO VISIBILITY

IDZ012-014-231900-
SOUTHWEST IDAHO


CITY           SKY/WX    TMP DP  RH WIND       PRES   REMARKS
BOISE          CLOUDY    32  25  75 NW23      29.90R WCI  19
CALDWELL       PTSUNNY   37  24  59 W21       29.95R WCI  26
MOUNTAIN HOME  PTSUNNY   32  27  81 W33G40    29.87R WCI  17
$$

IDZ016-017-231900-
SOUTHCENTRAL IDAHO


CITY           SKY/WX    TMP DP  RH WIND       PRES   REMARKS
BURLEY         LGT SNOW  28  22  78 W22G33    29.76R VSB 1   WCI  14
JEROME           N/A    N/A N/A N/A MISG      29.79R
TWIN FALLS     SNOW      24  21  88 W31G37    29.79R VSB 1/4 WCI   7
$$

IDZ019>023-231900-
SOUTHEAST IDAHO


CITY           SKY/WX    TMP DP  RH WIND       PRES   REMARKS
IDAHO FALLS    LGT SNOW  27  26  96 SW14      29.70R FOG     WCI  16
POCATELLO      CLOUDY    27  23  85 S20G26    29.72R WCI  13
REXBURG        CLOUDY    29  25  85 SW6       29.68R WCI  23
$$

IDZ006-010-011-018-031-032-231900-
CENTRAL IDAHO MOUNTAINS


CITY           SKY/WX    TMP DP  RH WIND       PRES   REMARKS
MCCALL         CLOUDY    26  14  60 N14       29.81R WCI  14
HAILEY         CLOUDY    28  19  69 CALM      29.71R
STANLEY          N/A     22  17  81 NW6       29.71R WCI  14
SALMON         CLOUDY    34  19  55 N10       29.79S WCI  26
CHALLIS        CLOUDY    29  22  75 NW12      29.74R WCI  19
$$

IDZ002-004-006-007-026-231900-
NORTHERN IDAHO


CITY           SKY/WX    TMP DP  RH WIND       PRES   REMARKS
LEWISTON       PTSUNNY   38  27  64 NW7       30.09S WCI  33
LOWELL           N/A     33  31  92 SE5       30.06R WCI  29
COEUR D`ALENE  FOG       30  28  93 SW3       30.07R VSB 3/4
MULLAN PASS    CLOUDY    22  18  85 CALM      29.86R FOG
$$



USA.gov is the U.S. government's official web portal to all federal, state and local government web resources and services.